This is the latest recevied weather packets stored in our database for station/object KY0TEQ-13. If no packets are shown the sender has not sent any weather packets the latest 10 day(s).
| Time | Temp. | Humidity | Pressure | Rain* | Wind** | Luminosity | Snow |
|---|---|---|---|---|---|---|---|
| 1788004122 | 18.33° C | 53% | 1312.2 hPa | 0 mm | - | 0 W/m² | - |
| 1788003820 | 18.33° C | 52% | 1312.4 hPa | 0 mm | - | 0 W/m² | - |
| 1788003515 | 18.33° C | 51% | 1312.1 hPa | 0 mm | - | 0 W/m² | - |
| 1788003210 | 17.78° C | 54% | 1312.2 hPa | 0 mm | - | 0 W/m² | - |
| 1788002909 | 17.22° C | 54% | 1311.9 hPa | 0 mm | - | 0 W/m² | - |
| 1788002605 | 17.78° C | 54% | 1312.1 hPa | 0 mm | - | 0 W/m² | - |
| 1788002301 | 17.78° C | 54% | 1312.2 hPa | 0 mm | - | 0 W/m² | - |
| 1788002000 | 17.78° C | 55% | 1312.1 hPa | 0 mm | - | 0 W/m² | - |
| 1788001695 | 17.78° C | 55% | 1312.1 hPa | 0 mm | - | 0 W/m² | - |
| 1788001390 | 18.33° C | 52% | 1312.1 hPa | 0 mm | - | 0 W/m² | - |
| 1788001085 | 18.33° C | 52% | 1312.2 hPa | 0 mm | - | 0 W/m² | - |
| 1788000780 | 18.33° C | 50% | 1311.8 hPa | 0 mm | - | 0 W/m² | - |
| 1788000476 | 18.33° C | 50% | 1311.7 hPa | 0 mm | - | 0 W/m² | - |
| 1788000174 | 17.78° C | 51% | 1311.7 hPa | 0 mm | - | 0 W/m² | - |
| 1787999882 | 17.22° C | 52% | 1312.1 hPa | 0 mm | - | 0 W/m² | - |
| 1787999568 | 17.22° C | 53% | 1311.8 hPa | 0 mm | - | 0 W/m² | - |
| 1787999264 | 17.22° C | 54% | 1311.9 hPa | 0 mm | - | 0 W/m² | - |
| 1787998958 | 17.22° C | 53% | 1311.8 hPa | 0 mm | - | 0 W/m² | - |
| 1787998657 | 17.78° C | 51% | 1311.4 hPa | 0 mm | - | 0 W/m² | - |
| 1787998356 | 17.78° C | 50% | 1311.8 hPa | 0 mm | - | 0 W/m² | - |
| 1787998051 | 17.22° C | 52% | 1311.9 hPa | 0 mm | - | 0 W/m² | - |
| 1787997750 | 18.33° C | 49% | 1311.8 hPa | 0 mm | - | 0 W/m² | - |
| 1787997443 | 18.33° C | 49% | 1311.8 hPa | 0 mm | - | 0 W/m² | - |
| 1787997138 | 18.33° C | 50% | 1311.6 hPa | 0 mm | - | 0 W/m² | - |
| 1787996833 | 18.33° C | 49% | 1311.9 hPa | 0 mm | - | 0 W/m² | - |
* Rain latest hour (hover to see other rain measurements)
** Current wind speed in m/s (hover to see current wind gust speed)